Year,Month,Day,Hour,Minute,Value (Times are PST for temperature in C)
2019,03,21,00,00,8.50
2019,03,21,00,01,8.50
2019,03,21,00,02,8.40
2019,03,21,00,03,8.40
2019,03,21,00,04,8.30
2019,03,21,00,05,8.30
2019,03,21,00,06,8.20
2019,03,21,00,07,8.20
2019,03,21,00,08,8.20
2019,03,21,00,09,8.10
2019,03,21,00,10,8.10
2019,03,21,00,11,8.10
2019,03,21,00,12,8.10
2019,03,21,00,13,8.10
2019,03,21,00,14,8.10
2019,03,21,00,15,8.10
2019,03,21,00,16,8.10
2019,03,21,00,17,8.10
2019,03,21,00,18,8.10
2019,03,21,00,19,8.10
2019,03,21,00,20,8.10
2019,03,21,00,21,8.10
2019,03,21,00,22,8.00
2019,03,21,00,23,8.10
2019,03,21,00,24,8.10
2019,03,21,00,25,8.10
2019,03,21,00,26,8.00
2019,03,21,00,27,7.90
2019,03,21,00,28,7.80
2019,03,21,00,29,7.70
2019,03,21,00,30,7.70
2019,03,21,00,31,7.70
2019,03,21,00,32,7.60
2019,03,21,00,33,7.60
2019,03,21,00,34,7.60
2019,03,21,00,35,7.50
2019,03,21,00,36,7.50
2019,03,21,00,37,7.50
2019,03,21,00,38,7.50
2019,03,21,00,39,7.50
2019,03,21,00,40,7.50
2019,03,21,00,41,7.50
2019,03,21,00,42,7.50
2019,03,21,00,43,7.50
2019,03,21,00,44,7.40
2019,03,21,00,45,7.40
2019,03,21,00,46,7.40
2019,03,21,00,47,7.40
2019,03,21,00,48,7.40
2019,03,21,00,49,7.40
2019,03,21,00,50,7.40
2019,03,21,00,51,7.40
2019,03,21,00,52,7.40
2019,03,21,00,53,7.40
2019,03,21,00,54,7.40
2019,03,21,00,55,7.40
2019,03,21,00,56,7.40
2019,03,21,00,57,7.40
2019,03,21,00,58,7.50
2019,03,21,00,59,7.50
2019,03,21,01,00,7.40
2019,03,21,01,01,7.40
2019,03,21,01,02,7.40
2019,03,21,01,03,7.40
2019,03,21,01,04,7.40
2019,03,21,01,05,7.40
2019,03,21,01,06,7.40
2019,03,21,01,07,7.30
2019,03,21,01,08,7.30
2019,03,21,01,09,7.30
2019,03,21,01,10,7.30
2019,03,21,01,11,7.30
2019,03,21,01,12,7.30
2019,03,21,01,13,7.30
2019,03,21,01,14,7.30
2019,03,21,01,15,7.20
2019,03,21,01,16,7.20
2019,03,21,01,17,7.20
2019,03,21,01,18,7.20
2019,03,21,01,19,7.20
2019,03,21,01,20,7.20
2019,03,21,01,21,7.20
2019,03,21,01,22,7.20
2019,03,21,01,23,7.20
2019,03,21,01,24,7.20
2019,03,21,01,25,7.20
2019,03,21,01,26,7.10
2019,03,21,01,27,7.10
2019,03,21,01,28,7.10
2019,03,21,01,29,7.10
2019,03,21,01,30,7.10
2019,03,21,01,31,7.10
2019,03,21,01,32,7.20
2019,03,21,01,33,7.20
2019,03,21,01,34,7.10
2019,03,21,01,35,7.10
2019,03,21,01,36,7.10
2019,03,21,01,37,7.00
2019,03,21,01,38,7.00
2019,03,21,01,39,6.90
2019,03,21,01,40,6.80
2019,03,21,01,41,6.80
2019,03,21,01,42,6.80
2019,03,21,01,43,6.70
2019,03,21,01,44,6.70
2019,03,21,01,45,6.70
2019,03,21,01,46,6.60
2019,03,21,01,47,6.60
2019,03,21,01,48,6.50
2019,03,21,01,49,6.50
2019,03,21,01,50,6.50
2019,03,21,01,51,6.40
2019,03,21,01,52,6.40
2019,03,21,01,53,6.40
2019,03,21,01,54,6.30
2019,03,21,01,55,6.30
2019,03,21,01,56,6.30
2019,03,21,01,57,6.30
2019,03,21,01,58,6.30
2019,03,21,01,59,6.30
2019,03,21,02,00,6.30
2019,03,21,02,01,6.20
2019,03,21,02,02,6.20
2019,03,21,02,03,6.20
2019,03,21,02,04,6.20
2019,03,21,02,05,6.20
2019,03,21,02,06,6.20
2019,03,21,02,07,6.20
2019,03,21,02,08,6.20
2019,03,21,02,09,6.20
2019,03,21,02,10,6.20
2019,03,21,02,11,6.20
2019,03,21,02,12,6.20
2019,03,21,02,13,6.20
2019,03,21,02,14,6.20
2019,03,21,02,15,6.20
2019,03,21,02,16,6.20
2019,03,21,02,17,6.10
2019,03,21,02,18,6.10
2019,03,21,02,19,6.10
2019,03,21,02,20,6.10
2019,03,21,02,21,6.10
2019,03,21,02,22,6.10
2019,03,21,02,23,6.10
2019,03,21,02,24,6.10
2019,03,21,02,25,6.10
2019,03,21,02,26,6.10
2019,03,21,02,27,6.10
2019,03,21,02,28,6.00
2019,03,21,02,29,6.00
2019,03,21,02,30,6.00
2019,03,21,02,31,6.00
2019,03,21,02,32,6.00
2019,03,21,02,33,5.90
2019,03,21,02,34,5.90
2019,03,21,02,35,5.90
2019,03,21,02,36,5.90
2019,03,21,02,37,5.90
2019,03,21,02,38,5.90
2019,03,21,02,39,5.90
2019,03,21,02,40,5.80
2019,03,21,02,41,5.80
2019,03,21,02,42,5.80
2019,03,21,02,43,5.80
2019,03,21,02,44,5.80
2019,03,21,02,45,5.80
2019,03,21,02,46,5.80
2019,03,21,02,47,5.80
2019,03,21,02,48,5.80
2019,03,21,02,49,5.80
2019,03,21,02,50,5.80
2019,03,21,02,51,5.70
2019,03,21,02,52,5.70
2019,03,21,02,53,5.70
2019,03,21,02,54,5.70
2019,03,21,02,55,5.70
2019,03,21,02,56,5.70
2019,03,21,02,57,5.70
2019,03,21,02,58,5.70
2019,03,21,02,59,5.70
2019,03,21,03,00,5.60
2019,03,21,03,01,5.60
2019,03,21,03,02,5.60
2019,03,21,03,03,5.60
2019,03,21,03,04,5.60
2019,03,21,03,05,5.60
2019,03,21,03,06,5.60
2019,03,21,03,07,5.60
2019,03,21,03,08,5.50
2019,03,21,03,09,5.50
2019,03,21,03,10,5.50
2019,03,21,03,11,5.50
2019,03,21,03,12,5.50
2019,03,21,03,13,5.40
2019,03,21,03,14,5.40
2019,03,21,03,15,5.40
2019,03,21,03,16,5.40
2019,03,21,03,17,5.40
2019,03,21,03,18,5.40
2019,03,21,03,19,5.40
2019,03,21,03,20,5.40
2019,03,21,03,21,5.30
2019,03,21,03,22,5.30
2019,03,21,03,23,5.30
2019,03,21,03,24,5.30
2019,03,21,03,25,5.30
2019,03,21,03,26,5.30
2019,03,21,03,27,5.30
2019,03,21,03,28,5.20
2019,03,21,03,29,5.20
2019,03,21,03,30,5.20
2019,03,21,03,31,5.20
2019,03,21,03,32,5.20
2019,03,21,03,33,5.20
2019,03,21,03,34,5.20
2019,03,21,03,35,5.10
2019,03,21,03,36,5.10
2019,03,21,03,37,5.10
2019,03,21,03,38,5.10
2019,03,21,03,39,5.10
2019,03,21,03,40,5.10
2019,03,21,03,41,5.10
2019,03,21,03,42,5.10
2019,03,21,03,43,5.00
2019,03,21,03,44,5.00
2019,03,21,03,45,5.00
2019,03,21,03,46,4.90
2019,03,21,03,47,4.90
2019,03,21,03,48,4.90
2019,03,21,03,49,4.90
2019,03,21,03,50,4.90
2019,03,21,03,51,4.90
2019,03,21,03,52,4.90
2019,03,21,03,53,4.90
2019,03,21,03,54,4.90
2019,03,21,03,55,4.90
2019,03,21,03,56,4.80
2019,03,21,03,57,4.80
2019,03,21,03,58,4.80
2019,03,21,03,59,4.80
2019,03,21,04,00,4.80
2019,03,21,04,01,4.80
2019,03,21,04,02,4.80
2019,03,21,04,03,4.80
2019,03,21,04,04,4.80
2019,03,21,04,05,4.80
2019,03,21,04,06,4.70
2019,03,21,04,07,4.70
2019,03,21,04,08,4.70
2019,03,21,04,09,4.70
2019,03,21,04,10,4.70
2019,03,21,04,11,4.70
2019,03,21,04,12,4.70
2019,03,21,04,13,4.70
2019,03,21,04,14,4.70
2019,03,21,04,15,4.70
2019,03,21,04,16,4.70
2019,03,21,04,17,4.70
2019,03,21,04,18,4.60
2019,03,21,04,19,4.60
2019,03,21,04,20,4.60
2019,03,21,04,21,4.60
2019,03,21,04,22,4.60
2019,03,21,04,23,4.50
2019,03,21,04,24,4.50
2019,03,21,04,25,4.50
2019,03,21,04,26,4.50
2019,03,21,04,27,4.40
2019,03,21,04,28,4.40
2019,03,21,04,29,4.40
2019,03,21,04,30,4.40
2019,03,21,04,31,4.40
2019,03,21,04,32,4.40
2019,03,21,04,33,4.40
2019,03,21,04,34,4.40
2019,03,21,04,35,4.40
2019,03,21,04,36,4.40
2019,03,21,04,37,4.40
2019,03,21,04,38,4.40
2019,03,21,04,39,4.40
2019,03,21,04,40,4.40
2019,03,21,04,41,4.40
2019,03,21,04,42,4.40
2019,03,21,04,43,4.40
2019,03,21,04,44,4.40
2019,03,21,04,45,4.40
2019,03,21,04,46,4.40
2019,03,21,04,47,4.50
2019,03,21,04,48,4.50
2019,03,21,04,49,4.60
2019,03,21,04,50,4.60
2019,03,21,04,51,4.60
2019,03,21,04,52,4.70
2019,03,21,04,53,4.70
2019,03,21,04,54,4.70
2019,03,21,04,55,4.70
2019,03,21,04,56,4.70
2019,03,21,04,57,4.70
2019,03,21,04,58,4.60
2019,03,21,04,59,4.60
2019,03,21,05,00,4.60
2019,03,21,05,01,4.60
2019,03,21,05,02,4.50
2019,03,21,05,03,4.50
2019,03,21,05,04,4.50
2019,03,21,05,05,4.50
2019,03,21,05,06,4.50
2019,03,21,05,07,4.40
2019,03,21,05,08,4.40
2019,03,21,05,09,4.40
2019,03,21,05,10,4.40
2019,03,21,05,11,4.40
2019,03,21,05,12,4.40
2019,03,21,05,13,4.40
2019,03,21,05,14,4.40
2019,03,21,05,15,4.40
2019,03,21,05,16,4.40
2019,03,21,05,17,4.40
2019,03,21,05,18,4.40
2019,03,21,05,19,4.30
2019,03,21,05,20,4.30
2019,03,21,05,21,4.30
2019,03,21,05,22,4.30
2019,03,21,05,23,4.30
2019,03,21,05,24,4.40
2019,03,21,05,25,4.40
2019,03,21,05,26,4.40
2019,03,21,05,27,4.40
2019,03,21,05,28,4.30
2019,03,21,05,29,4.30
2019,03,21,05,30,4.30
2019,03,21,05,31,4.30
2019,03,21,05,32,4.30
2019,03,21,05,33,4.30
2019,03,21,05,34,4.30
2019,03,21,05,35,4.30
2019,03,21,05,36,4.30
2019,03,21,05,37,4.30
2019,03,21,05,38,4.30
2019,03,21,05,39,4.20
2019,03,21,05,40,4.30
2019,03,21,05,41,4.20
2019,03,21,05,42,4.20
2019,03,21,05,43,4.20
2019,03,21,05,44,4.20
2019,03,21,05,45,4.20
2019,03,21,05,46,4.20
2019,03,21,05,47,4.20
2019,03,21,05,48,4.20
2019,03,21,05,49,4.20
2019,03,21,05,50,4.20
2019,03,21,05,51,4.10
2019,03,21,05,52,4.10
2019,03,21,05,53,4.10
2019,03,21,05,54,4.10
2019,03,21,05,55,4.10
2019,03,21,05,56,4.00
2019,03,21,05,57,4.00
2019,03,21,05,58,4.00
2019,03,21,05,59,3.90
2019,03,21,06,00,3.90
2019,03,21,06,01,3.90
2019,03,21,06,02,3.90
2019,03,21,06,03,3.90
2019,03,21,06,04,3.90
2019,03,21,06,05,3.90
2019,03,21,06,06,3.90
2019,03,21,06,07,3.90
2019,03,21,06,08,3.90
2019,03,21,06,09,3.80
2019,03,21,06,10,3.80
2019,03,21,06,11,3.80
2019,03,21,06,12,3.80
2019,03,21,06,13,3.80
2019,03,21,06,14,3.80
2019,03,21,06,15,3.80
2019,03,21,06,16,3.70
2019,03,21,06,17,3.70
2019,03,21,06,18,3.70
2019,03,21,06,19,3.70
2019,03,21,06,20,3.70
2019,03,21,06,21,3.70
2019,03,21,06,22,3.70
2019,03,21,06,23,3.70
2019,03,21,06,24,3.70
2019,03,21,06,25,3.70
2019,03,21,06,26,3.70
2019,03,21,06,27,3.70
2019,03,21,06,28,3.70
2019,03,21,06,29,3.70
2019,03,21,06,30,3.70
2019,03,21,06,31,3.70
2019,03,21,06,32,3.70
2019,03,21,06,33,3.70
2019,03,21,06,34,3.70
2019,03,21,06,35,3.70
2019,03,21,06,36,3.60
2019,03,21,06,37,3.60
2019,03,21,06,38,3.60
2019,03,21,06,39,3.70
2019,03,21,06,40,3.70
2019,03,21,06,41,3.70
2019,03,21,06,42,3.70
2019,03,21,06,43,3.70
2019,03,21,06,44,3.60
2019,03,21,06,45,3.60
2019,03,21,06,46,3.60
2019,03,21,06,47,3.60
2019,03,21,06,48,3.60
2019,03,21,06,49,3.60
2019,03,21,06,50,3.60
2019,03,21,06,51,3.60
2019,03,21,06,52,3.60
2019,03,21,06,53,3.60
2019,03,21,06,54,3.60
2019,03,21,06,55,3.60
2019,03,21,06,56,3.60
2019,03,21,06,57,3.50
2019,03,21,06,58,3.50
2019,03,21,06,59,3.50
2019,03,21,07,00,3.50
2019,03,21,07,01,3.50
2019,03,21,07,02,3.50
2019,03,21,07,03,3.50
2019,03,21,07,04,3.50
2019,03,21,07,05,3.50
2019,03,21,07,06,3.50
2019,03,21,07,07,3.50
2019,03,21,07,08,3.50
2019,03,21,07,09,3.50
2019,03,21,07,10,3.40
2019,03,21,07,11,3.50
2019,03,21,07,12,3.50
2019,03,21,07,13,3.40
2019,03,21,07,14,3.40
2019,03,21,07,15,3.40
2019,03,21,07,16,3.50
2019,03,21,07,17,3.50
2019,03,21,07,18,3.50
2019,03,21,07,19,3.50
2019,03,21,07,20,3.50
2019,03,21,07,21,3.50
2019,03,21,07,22,3.50
2019,03,21,07,23,3.50
2019,03,21,07,24,3.60
2019,03,21,07,25,3.60
2019,03,21,07,26,3.60
2019,03,21,07,27,3.60
2019,03,21,07,28,3.60
2019,03,21,07,29,3.60
2019,03,21,07,30,3.60
2019,03,21,07,31,3.50
2019,03,21,07,32,3.60
2019,03,21,07,33,3.60
2019,03,21,07,34,3.60
2019,03,21,07,35,3.60
2019,03,21,07,36,3.60
2019,03,21,07,37,3.60
2019,03,21,07,38,3.60
2019,03,21,07,39,3.70
2019,03,21,07,40,3.70
2019,03,21,07,41,3.70
2019,03,21,07,42,3.70
2019,03,21,07,43,3.70
2019,03,21,07,44,3.80
2019,03,21,07,45,3.80
2019,03,21,07,46,3.80
2019,03,21,07,47,3.80
2019,03,21,07,48,3.80
2019,03,21,07,49,3.90
2019,03,21,07,50,3.90
2019,03,21,07,51,3.90
2019,03,21,07,52,3.90
2019,03,21,07,53,4.00
2019,03,21,07,54,4.00
2019,03,21,07,55,4.00
2019,03,21,07,56,4.10
2019,03,21,07,57,4.10
2019,03,21,07,58,4.10
2019,03,21,07,59,4.20
2019,03,21,08,00,4.20
2019,03,21,08,01,4.20
2019,03,21,08,02,4.20
2019,03,21,08,03,4.20
2019,03,21,08,04,4.30
2019,03,21,08,05,4.30
2019,03,21,08,06,4.30
2019,03,21,08,07,4.30
2019,03,21,08,08,4.30
2019,03,21,08,09,4.40
2019,03,21,08,10,4.40
2019,03,21,08,11,4.40
2019,03,21,08,12,4.50
2019,03,21,08,13,4.60
2019,03,21,08,14,4.60
2019,03,21,08,15,4.70
2019,03,21,08,16,4.80
2019,03,21,08,17,4.90
2019,03,21,08,18,5.00
2019,03,21,08,19,5.10
2019,03,21,08,20,5.20
2019,03,21,08,21,5.30
2019,03,21,08,22,5.30
2019,03,21,08,23,5.30
2019,03,21,08,24,5.40
2019,03,21,08,25,5.40
2019,03,21,08,26,5.50
2019,03,21,08,27,5.60
2019,03,21,08,28,5.60
2019,03,21,08,29,5.60
2019,03,21,08,30,5.70
2019,03,21,08,31,5.70
2019,03,21,08,32,5.70
2019,03,21,08,33,5.70
2019,03,21,08,34,5.70
2019,03,21,08,35,5.70
2019,03,21,08,36,5.70
2019,03,21,08,37,5.70
2019,03,21,08,38,5.70
2019,03,21,08,39,5.70
2019,03,21,08,40,5.80
2019,03,21,08,41,5.90
2019,03,21,08,42,6.00
2019,03,21,08,43,6.00
2019,03,21,08,44,6.10
2019,03,21,08,45,6.10
2019,03,21,08,46,6.20
2019,03,21,08,47,6.30
2019,03,21,08,48,6.40
2019,03,21,08,49,6.60
2019,03,21,08,50,6.70
2019,03,21,08,51,6.90
2019,03,21,08,52,7.00
2019,03,21,08,53,7.00
2019,03,21,08,54,7.10
2019,03,21,08,55,7.10
2019,03,21,08,56,7.20
2019,03,21,08,57,7.30
2019,03,21,08,58,7.50
2019,03,21,08,59,7.60
2019,03,21,09,00,7.80
2019,03,21,09,01,8.00
2019,03,21,09,02,8.10
2019,03,21,09,03,8.20
2019,03,21,09,04,8.30
2019,03,21,09,05,8.40
2019,03,21,09,06,8.50
2019,03,21,09,07,8.60
2019,03,21,09,08,8.60
2019,03,21,09,09,8.70
2019,03,21,09,10,8.70
2019,03,21,09,11,8.70
2019,03,21,09,12,8.80
2019,03,21,09,13,8.80
2019,03,21,09,14,8.90
2019,03,21,09,15,8.90
2019,03,21,09,16,9.00
2019,03,21,09,17,9.10
2019,03,21,09,18,9.10
2019,03,21,09,19,9.20
2019,03,21,09,20,9.30
2019,03,21,09,21,9.40
2019,03,21,09,22,9.50
2019,03,21,09,23,9.60
2019,03,21,09,24,9.70
2019,03,21,09,25,9.80
2019,03,21,09,26,9.80
2019,03,21,09,27,9.90
2019,03,21,09,28,10.00
2019,03,21,09,29,10.10
2019,03,21,09,30,10.10
2019,03,21,09,31,10.10
2019,03,21,09,32,10.10
2019,03,21,09,33,10.10
2019,03,21,09,34,10.10
2019,03,21,09,35,10.10
2019,03,21,09,36,10.20
2019,03,21,09,37,10.20
2019,03,21,09,38,10.20
2019,03,21,09,39,10.20
2019,03,21,09,40,10.20
2019,03,21,09,41,10.20
2019,03,21,09,42,10.20
2019,03,21,09,43,10.30
2019,03,21,09,44,10.30
2019,03,21,09,45,10.30
2019,03,21,09,46,10.40
2019,03,21,09,47,10.40
2019,03,21,09,48,10.50
2019,03,21,09,49,10.50
2019,03,21,09,50,10.60
2019,03,21,09,51,10.60
2019,03,21,09,52,10.70
2019,03,21,09,53,10.70
2019,03,21,09,54,10.70
2019,03,21,09,55,10.70
2019,03,21,09,56,10.80
2019,03,21,09,57,10.90
2019,03,21,09,58,10.90
2019,03,21,09,59,11.00
2019,03,21,10,00,11.00
2019,03,21,10,01,11.10
2019,03,21,10,02,11.10
2019,03,21,10,03,11.10
2019,03,21,10,04,11.10
2019,03,21,10,05,11.20
2019,03,21,10,06,11.20
2019,03,21,10,07,11.30
2019,03,21,10,08,11.30
2019,03,21,10,09,11.40
2019,03,21,10,10,11.50
2019,03,21,10,11,11.60
2019,03,21,10,12,11.60
2019,03,21,10,13,11.60
2019,03,21,10,14,11.70
2019,03,21,10,15,11.80
2019,03,21,10,16,11.80
2019,03,21,10,17,11.90
2019,03,21,10,18,12.00
2019,03,21,10,19,12.10
2019,03,21,10,20,12.10
2019,03,21,10,21,12.20
2019,03,21,10,22,12.20
2019,03,21,10,23,12.30
2019,03,21,10,24,12.30
2019,03,21,10,25,12.40
2019,03,21,10,26,12.40
2019,03,21,10,27,12.40
2019,03,21,10,28,12.40
2019,03,21,10,29,12.40
2019,03,21,10,30,12.40
2019,03,21,10,31,12.40
2019,03,21,10,32,12.40
2019,03,21,10,33,12.40
2019,03,21,10,34,12.50
2019,03,21,10,35,12.50
2019,03,21,10,36,12.50
2019,03,21,10,37,12.50
2019,03,21,10,38,12.50
2019,03,21,10,39,12.50
2019,03,21,10,40,12.50
2019,03,21,10,41,12.40
2019,03,21,10,42,12.40
2019,03,21,10,43,12.40
2019,03,21,10,44,12.30
2019,03,21,10,45,12.30
2019,03,21,10,46,12.40
2019,03,21,10,47,12.40
2019,03,21,10,48,12.50
2019,03,21,10,49,12.50
2019,03,21,10,50,12.50
2019,03,21,10,51,12.60
2019,03,21,10,52,12.60
2019,03,21,10,53,12.60
2019,03,21,10,54,12.70
2019,03,21,10,55,12.70
2019,03,21,10,56,12.70
2019,03,21,10,57,12.70
2019,03,21,10,58,12.80
2019,03,21,10,59,12.80
2019,03,21,11,00,12.80
2019,03,21,11,01,12.80
2019,03,21,11,02,12.80
2019,03,21,11,03,12.80
2019,03,21,11,04,12.80
2019,03,21,11,05,12.70
2019,03,21,11,06,12.70
2019,03,21,11,07,12.70
2019,03,21,11,08,12.80
2019,03,21,11,09,12.80
2019,03,21,11,10,12.90
2019,03,21,11,11,12.90
2019,03,21,11,12,13.00
2019,03,21,11,13,13.00
2019,03,21,11,14,13.00
2019,03,21,11,15,13.10
2019,03,21,11,16,13.10
2019,03,21,11,17,13.20
2019,03,21,11,18,13.20
2019,03,21,11,19,13.20
2019,03,21,11,20,13.20
2019,03,21,11,21,13.20
2019,03,21,11,22,13.30
2019,03,21,11,23,13.50
2019,03,21,11,24,13.60
2019,03,21,11,25,13.60
2019,03,21,11,26,13.70
2019,03,21,11,27,13.70
2019,03,21,11,28,13.70
2019,03,21,11,29,13.70
2019,03,21,11,30,13.70
2019,03,21,11,31,13.70
2019,03,21,11,32,13.70
2019,03,21,11,33,13.70
2019,03,21,11,34,13.80
2019,03,21,11,35,13.90
2019,03,21,11,36,13.90
2019,03,21,11,37,13.90
2019,03,21,11,38,13.90
2019,03,21,11,39,13.90
2019,03,21,11,40,13.90
2019,03,21,11,41,13.90
2019,03,21,11,42,14.00
2019,03,21,11,43,14.00
2019,03,21,11,44,14.00
2019,03,21,11,45,14.00
2019,03,21,11,46,14.00
2019,03,21,11,47,14.00
2019,03,21,11,48,14.10
2019,03,21,11,49,14.10
2019,03,21,11,50,14.20
2019,03,21,11,51,14.30
2019,03,21,11,52,14.30
2019,03,21,11,53,14.30
2019,03,21,11,54,14.30
2019,03,21,11,55,14.40
2019,03,21,11,56,14.40
2019,03,21,11,57,14.50
2019,03,21,11,58,14.60
2019,03,21,11,59,14.50
2019,03,21,12,00,14.50
2019,03,21,12,01,14.50
2019,03,21,12,02,14.40
2019,03,21,12,03,14.40
2019,03,21,12,04,14.40
2019,03,21,12,05,14.40
2019,03,21,12,06,14.50
2019,03,21,12,07,14.60
2019,03,21,12,08,14.60
2019,03,21,12,09,14.60
2019,03,21,12,10,14.70
2019,03,21,12,11,14.70
2019,03,21,12,12,14.70
2019,03,21,12,13,14.60
2019,03,21,12,14,14.60
2019,03,21,12,15,14.50
2019,03,21,12,16,14.40
2019,03,21,12,17,14.40
2019,03,21,12,18,14.20
2019,03,21,12,19,14.10
2019,03,21,12,20,14.00
2019,03,21,12,21,13.90
2019,03,21,12,22,13.90
2019,03,21,12,23,13.80
2019,03,21,12,24,13.80
2019,03,21,12,25,13.80
2019,03,21,12,26,13.70
2019,03,21,12,27,13.70
2019,03,21,12,28,13.60
2019,03,21,12,29,13.70
2019,03,21,12,30,13.60
2019,03,21,12,31,13.50
2019,03,21,12,32,13.40
2019,03,21,12,33,13.30
2019,03,21,12,34,13.20
2019,03,21,12,35,13.20
2019,03,21,12,36,13.20
2019,03,21,12,37,13.20
2019,03,21,12,38,13.20
2019,03,21,12,39,13.30
2019,03,21,12,40,13.30
2019,03,21,12,41,13.40
2019,03,21,12,42,13.40
2019,03,21,12,43,13.40
2019,03,21,12,44,13.40
2019,03,21,12,45,13.40
2019,03,21,12,46,13.40
2019,03,21,12,47,13.50
2019,03,21,12,48,13.50
2019,03,21,12,49,13.50
2019,03,21,12,50,13.60
2019,03,21,12,51,13.70
2019,03,21,12,52,13.70
2019,03,21,12,53,13.70
2019,03,21,12,54,13.70
2019,03,21,12,55,13.70
2019,03,21,12,56,13.70
2019,03,21,12,57,13.80
2019,03,21,12,58,13.90
2019,03,21,12,59,13.90
2019,03,21,13,00,13.80
2019,03,21,13,01,13.80
2019,03,21,13,02,13.70
2019,03,21,13,03,13.70
2019,03,21,13,04,13.70
2019,03,21,13,05,13.60
2019,03,21,13,06,13.60
2019,03,21,13,07,13.60
2019,03,21,13,08,13.60
2019,03,21,13,09,13.60
2019,03,21,13,10,13.60
2019,03,21,13,11,13.70
2019,03,21,13,12,13.60
2019,03,21,13,13,13.60
2019,03,21,13,14,13.60
2019,03,21,13,15,13.50
2019,03,21,13,16,13.40
2019,03,21,13,17,13.50
2019,03,21,13,18,13.50
2019,03,21,13,19,13.60
2019,03,21,13,20,13.70
2019,03,21,13,21,13.80
2019,03,21,13,22,13.80
2019,03,21,13,23,13.90
2019,03,21,13,24,13.90
2019,03,21,13,25,13.90
2019,03,21,13,26,14.00
2019,03,21,13,27,14.10
2019,03,21,13,28,14.10
2019,03,21,13,29,14.10
2019,03,21,13,30,14.10
2019,03,21,13,31,14.10
2019,03,21,13,32,14.20
2019,03,21,13,33,14.10
2019,03,21,13,34,14.10
2019,03,21,13,35,14.10
2019,03,21,13,36,14.10
2019,03,21,13,37,14.10
2019,03,21,13,38,14.10
2019,03,21,13,39,14.10
2019,03,21,13,40,14.20
2019,03,21,13,41,14.20
2019,03,21,13,42,14.20
2019,03,21,13,43,14.20
2019,03,21,13,44,14.20
2019,03,21,13,45,14.30
2019,03,21,13,46,14.40
2019,03,21,13,47,14.50
2019,03,21,13,48,14.60
2019,03,21,13,49,14.70
2019,03,21,13,50,14.80
2019,03,21,13,51,14.80
2019,03,21,13,52,14.90
2019,03,21,13,53,15.00
2019,03,21,13,54,15.10
2019,03,21,13,55,15.20
2019,03,21,13,56,15.30
2019,03,21,13,57,15.30
2019,03,21,13,58,15.20
2019,03,21,13,59,15.20
2019,03,21,14,00,15.20
2019,03,21,14,01,15.20
2019,03,21,14,02,15.10
2019,03,21,14,03,15.00
2019,03,21,14,04,15.00
2019,03,21,14,05,14.90
2019,03,21,14,06,14.90
2019,03,21,14,07,15.00
2019,03,21,14,08,15.00
2019,03,21,14,09,15.00
2019,03,21,14,10,15.00
2019,03,21,14,11,15.10
2019,03,21,14,12,15.00
2019,03,21,14,13,14.90
2019,03,21,14,14,14.90
2019,03,21,14,15,14.90
2019,03,21,14,16,14.90
2019,03,21,14,17,14.90
2019,03,21,14,18,15.00
2019,03,21,14,19,15.00
2019,03,21,14,20,15.10
2019,03,21,14,21,15.10
2019,03,21,14,22,15.10
2019,03,21,14,23,15.00
2019,03,21,14,24,14.90
2019,03,21,14,25,14.80
2019,03,21,14,26,14.80
2019,03,21,14,27,14.70
2019,03,21,14,28,14.60
2019,03,21,14,29,14.60
2019,03,21,14,30,14.50
2019,03,21,14,31,14.50
2019,03,21,14,32,14.50
2019,03,21,14,33,14.50
2019,03,21,14,34,14.50
2019,03,21,14,35,14.50
2019,03,21,14,36,14.40
2019,03,21,14,37,14.40
2019,03,21,14,38,14.40
2019,03,21,14,39,14.40
2019,03,21,14,40,14.40
2019,03,21,14,41,14.40
2019,03,21,14,42,14.40
2019,03,21,14,43,14.40
2019,03,21,14,44,14.50
2019,03,21,14,45,14.40
2019,03,21,14,46,14.40
2019,03,21,14,47,14.50
2019,03,21,14,48,14.60
2019,03,21,14,49,14.50
2019,03,21,14,50,14.40
2019,03,21,14,51,14.40
2019,03,21,14,52,14.20
2019,03,21,14,53,14.20
2019,03,21,14,54,14.20
2019,03,21,14,55,14.10
2019,03,21,14,56,14.00
2019,03,21,14,57,14.10
2019,03,21,14,58,14.10
2019,03,21,14,59,14.10
2019,03,21,15,00,14.10
2019,03,21,15,01,14.10
2019,03,21,15,02,14.00
2019,03,21,15,03,14.00
2019,03,21,15,04,14.00
2019,03,21,15,05,13.90
2019,03,21,15,06,13.80
2019,03,21,15,07,13.90
2019,03,21,15,08,13.90
2019,03,21,15,09,13.90
2019,03,21,15,10,13.90
2019,03,21,15,11,13.90
2019,03,21,15,12,13.90
2019,03,21,15,13,13.90
2019,03,21,15,14,13.90
2019,03,21,15,15,13.90
2019,03,21,15,16,14.00
2019,03,21,15,17,14.10
2019,03,21,15,18,14.20
2019,03,21,15,19,14.30
2019,03,21,15,20,14.40
2019,03,21,15,21,14.50
2019,03,21,15,22,14.60
2019,03,21,15,23,14.70
2019,03,21,15,24,14.60
2019,03,21,15,25,14.70
2019,03,21,15,26,14.60
2019,03,21,15,27,14.60
2019,03,21,15,28,14.50
2019,03,21,15,29,14.40
2019,03,21,15,30,14.40
2019,03,21,15,31,14.40
2019,03,21,15,32,14.40
2019,03,21,15,33,14.40
2019,03,21,15,34,14.40
2019,03,21,15,35,14.40
2019,03,21,15,36,14.30
2019,03,21,15,37,14.30
2019,03,21,15,38,14.20
2019,03,21,15,39,14.20
2019,03,21,15,40,14.20
2019,03,21,15,41,14.20
2019,03,21,15,42,14.20
2019,03,21,15,43,14.20
2019,03,21,15,44,14.20
2019,03,21,15,45,14.20
2019,03,21,15,46,14.20
2019,03,21,15,47,14.30
2019,03,21,15,48,14.30
2019,03,21,15,49,14.20
2019,03,21,15,50,14.20
2019,03,21,15,51,14.10
2019,03,21,15,52,14.10
2019,03,21,15,53,14.10
2019,03,21,15,54,14.10
2019,03,21,15,55,14.10
2019,03,21,15,56,14.10
2019,03,21,15,57,14.10
2019,03,21,15,58,14.00
2019,03,21,15,59,14.00
2019,03,21,16,00,14.10
2019,03,21,16,01,14.10
2019,03,21,16,02,14.20
2019,03,21,16,03,14.30
2019,03,21,16,04,14.20
2019,03,21,16,05,14.20
2019,03,21,16,06,14.20
2019,03,21,16,07,14.10
2019,03,21,16,08,14.10
2019,03,21,16,09,14.10
2019,03,21,16,10,14.00
2019,03,21,16,11,14.00
2019,03,21,16,12,14.10
2019,03,21,16,13,14.10
2019,03,21,16,14,14.20
2019,03,21,16,15,14.30
2019,03,21,16,16,14.30
2019,03,21,16,17,14.40
2019,03,21,16,18,14.50
2019,03,21,16,19,14.60
2019,03,21,16,20,14.60
2019,03,21,16,21,14.60
2019,03,21,16,22,14.50
2019,03,21,16,23,14.50
2019,03,21,16,24,14.50
2019,03,21,16,25,14.40
2019,03,21,16,26,14.40
2019,03,21,16,27,14.30
2019,03,21,16,28,14.20
2019,03,21,16,29,14.20
2019,03,21,16,30,14.20
2019,03,21,16,31,14.20
2019,03,21,16,32,14.20
2019,03,21,16,33,14.20
2019,03,21,16,34,14.20
2019,03,21,16,35,14.30
2019,03,21,16,36,14.30
2019,03,21,16,37,14.30
2019,03,21,16,38,14.30
2019,03,21,16,39,14.30
2019,03,21,16,40,14.30
2019,03,21,16,41,14.30
2019,03,21,16,42,14.40
2019,03,21,16,43,14.40
2019,03,21,16,44,14.40
2019,03,21,16,45,14.40
2019,03,21,16,46,14.40
2019,03,21,16,47,14.40
2019,03,21,16,48,14.40
2019,03,21,16,49,14.40
2019,03,21,16,50,14.30
2019,03,21,16,51,14.30
2019,03,21,16,52,14.20
2019,03,21,16,53,14.20
2019,03,21,16,54,14.10
2019,03,21,16,55,14.10
2019,03,21,16,56,14.10
2019,03,21,16,57,14.10
2019,03,21,16,58,14.00
2019,03,21,16,59,14.00
2019,03,21,17,00,14.10
2019,03,21,17,01,14.10
2019,03,21,17,02,14.10
2019,03,21,17,03,14.10
2019,03,21,17,04,14.20
2019,03,21,17,05,14.30
2019,03,21,17,06,14.30
2019,03,21,17,07,14.30
2019,03,21,17,08,14.40
2019,03,21,17,09,14.40
2019,03,21,17,10,14.50
2019,03,21,17,11,14.50
2019,03,21,17,12,14.60
2019,03,21,17,13,14.70
2019,03,21,17,14,14.80
2019,03,21,17,15,14.80
2019,03,21,17,16,15.00
2019,03,21,17,17,15.10
2019,03,21,17,18,15.20
2019,03,21,17,19,15.30
2019,03,21,17,20,15.40
2019,03,21,17,21,15.50
2019,03,21,17,22,15.50
2019,03,21,17,23,15.60
2019,03,21,17,24,15.60
2019,03,21,17,25,15.60
2019,03,21,17,26,15.60
2019,03,21,17,27,15.60
2019,03,21,17,28,15.70
2019,03,21,17,29,15.70
2019,03,21,17,30,15.70
2019,03,21,17,31,15.70
2019,03,21,17,32,15.70
2019,03,21,17,33,15.70
2019,03,21,17,34,15.70
2019,03,21,17,35,15.60
2019,03,21,17,36,15.60
2019,03,21,17,37,15.60
2019,03,21,17,38,15.60
2019,03,21,17,39,15.60
2019,03,21,17,40,15.50
2019,03,21,17,41,15.50
2019,03,21,17,42,15.50
2019,03,21,17,43,15.40
2019,03,21,17,44,15.40